FENGYUN 1C DEB, 30446

Orbit data source: Space-Track

FENGYUN 1C DEB, 30446 is space debris in SSO originally from a launch on Mon, 10 May 1999 UTC launched from the Taiyaun Space Center, China (TSC). Fengyun 1C debris stems from the Chinese weather satellite Fengyun-1C, which was intentionally destroyed by a Chinese anti-satellite missile in 2007. This event dramatically increased the amount of space debris, with thousands of trackable fragments posing hazards to satellites and human spaceflight. The Fengyun 1C debris cloud has become a focal point in discussions about space sustainability and the need for international regulations to prevent the creation of new debris.

Loading next visibility...
Identifier
30446, 1999-025AFH
Orbit
SSO
Country
Flag of CNCN / PRC
Related business
Manufacturer
Unknown
Mission
Spacecraft
Bus & Motor
Unknown
Mass
Unknown
Launch date (UTC)
1999-05-10 (27 years ago)
Launch vehicle
Unknown
Launch site
Taiyaun Space Center, China (TSC)
Object type
Payload
Rocket body
Debris
Shape & HBR
Unknown shape, 0.1 m
Radar Cross Section
Small (<0.1 m²)

Expand to show TLE details & history
Last TLE update: 1 day ago

TLE from 1 day ago
0 FENGYUN 1C DEB
1 30446U 99025AFH 25312.47672178  .00011334  00000-0  32947-2 0  9996
2 30446  98.6154  34.5319 0036061 197.9289 162.0631 14.44052605976820
Epoch: 2025-11-08T11:26Z
TLE epoch observation values (Epoch: 2025-11-08T11:26:28.761Z)
Latitude
-0.00009°
Longitude
175.0063°
Altitude
772.543 km
Speed
7.455 km/s
True Right ascension
02h 18m 07s
True Declination
0° 00' 00"
Sunlit
Object was in full shadow at epoch
Visualization orbit readout
Latitude
Unknown
Longitude
Unknown
Altitude
Unknown
Speed
Unknown
Apparent Right ascension
Unknown
Apparent Declination
Unknown
Sunlit
N/A
Visualization observer readout
Local Sidereal Time
07:16:19
Azimuth
Unknown
Elevation
Unknown
Doppler factor
Unknown
Orbital elements
Apogee altitude
767.939 km
Perigee altitude
716.585 km
Semi-major axis
7,120.399 km
Eccentricity
0.00361
Inclination
98.6154°
RAAN
34.5319°
Arg. of periapsis
197.9289°
True anomaly
162.18982°
Mean anomaly
162.0631°
Eccentric anomaly
162.12651°
Mean motion
3.61232 °/min
Orbital period
99.66 mins
BSTAR
0.0032947
Loading maneuver chart data...
Computing Atmospheric mass density...

Documentation

Showing up to 5 results
|